User: anonymous   Login
Location: Unspecified
(0.0000°N, 0.0000°E)
Time: 05:28:52
(UTC+00:00)
Language:

Tiangong 1 - Orbit

View from above orbital plane
View from above orbital plane
View from above satellite
View from above satellite

Ground track
Ground track

The orbit data is extracted from the following two-line orbital elements,

1 37820U 11053A   17056.74404880  .00028786  00000-0  20332-3 0  9998
2 37820  42.7609 159.7314 0017995   5.2528 125.2939 15.73221127310380
Epoch (UTC): 25 February 2017 17:51:25
Eccentricity: 0.0017995
inclination: 42.7609°
perigee height: 337 km
apogee height: 362 km
right ascension of ascending node: 159.7314°
argument of perigee: 5.2528°
revolutions per day: 15.73221127
mean anomaly at epoch: 125.2939°
orbit number at epoch: 31038

The dashed part of the orbit path shows where the satellite is in the earth's shadow,  

DLR